Location: Melbourne
(37.8170°S, 144.9670°E)
Time: 06:45:17
(UTC+11:00)

deb Explorer IX - All Passes

Search period start: 27 February 2017 00:00
Search period end: 09 March 2017 00:00
Orbit: 542 x 1126 km, 38.8° (Epoch: 24 February)

Date Brightness Start Highest point End Pass type
(mag) Time Alt. Az. Time Alt. Az. Time Alt. Az.
27 Feb - 06:39:12 10° N 06:43:18 16° NE 06:47:25 10° ENE visible
27 Feb - 08:23:02 10° NW 08:30:07 47° NNE 08:37:00 10° E daylight
27 Feb - 10:10:12 10° WNW 10:17:43 87° NNE 10:24:36 10° E daylight
27 Feb - 11:58:21 10° W 12:05:37 84° S 12:11:57 10° E daylight
27 Feb - 13:46:31 10° W 13:53:08 58° NNW 13:58:45 10° NE daylight
27 Feb - 15:35:43 10° W 15:39:37 18° NW 15:43:09 10° N daylight
28 Feb - 06:19:32 10° N 06:23:49 17° NE 06:28:12 10° ENE visible
28 Feb - 08:03:33 10° NW 08:10:39 49° NNE 08:17:39 10° E daylight
28 Feb - 09:50:44 10° WNW 09:58:17 89° N 10:05:18 10° E daylight
28 Feb - 11:38:52 10° W 11:46:14 85° S 11:52:43 10° E daylight
28 Feb - 13:27:01 10° W 13:33:45 57° NNW 13:39:31 10° NE daylight
28 Feb - 15:16:19 10° W 15:20:15 17° NW 15:23:49 10° N daylight
01 Mar - 05:59:54 10° N 06:04:21 17° NE 06:08:56 10° E visible
01 Mar - 07:44:04 10° NW 07:51:11 51° NNE 07:58:17 10° E daylight
01 Mar - 09:31:17 10° WNW 09:38:51 90° N 09:45:59 10° E daylight
01 Mar - 11:19:23 10° W 11:26:50 86° S 11:33:27 10° E daylight
01 Mar - 13:07:32 10° W 13:14:23 55° NNW 13:20:16 10° NE daylight
01 Mar - 14:56:55 10° W 15:00:52 17° NW 15:04:27 10° N daylight
02 Mar - 05:40:18 10° N 05:44:53 18° NE 05:49:37 10° E visible
02 Mar - 07:24:37 10° NW 07:31:42 52° NNE 07:38:53 10° E daylight
02 Mar - 09:11:50 10° W 09:19:23 89° SSW 09:26:38 10° E daylight
02 Mar - 10:59:54 10° W 11:07:24 87° S 11:14:10 10° E daylight
02 Mar - 12:48:02 10° W 12:54:58 54° NNW 13:01:00 10° NE daylight
02 Mar - 14:37:30 10° W 14:41:28 17° NW 14:45:05 10° N daylight
03 Mar - 05:20:44 10° N 05:25:24 19° NE 05:30:16 10° E visible
03 Mar - 07:05:11 10° NW 07:12:13 54° NNE 07:19:28 10° E daylight
03 Mar - 08:52:23 10° W 08:59:55 88° S 09:07:16 10° E daylight
03 Mar - 10:40:25 10° W 10:47:57 88° S 10:54:52 10° E daylight
03 Mar - 12:28:31 10° W 12:35:32 53° NNW 12:41:42 10° NE daylight
03 Mar - 14:18:06 10° W 14:22:02 16° NW 14:25:40 10° N daylight
04 Mar - 05:01:12 10° N 05:05:54 20° NE 05:10:53 10° E visible
04 Mar - 06:45:45 10° NW 06:52:43 56° NNE 07:00:02 10° E daylight
04 Mar - 08:32:58 10° W 08:40:27 88° S 08:47:52 10° E daylight
04 Mar - 10:20:56 10° W 10:28:30 89° SSE 10:35:32 10° E daylight
04 Mar - 12:09:01 10° W 12:16:05 52° NNW 12:22:22 10° NE daylight
04 Mar - 13:58:42 10° W 14:02:36 16° NW 14:06:14 10° N daylight
05 Mar - 04:41:41 10° N 04:46:25 20° NE 04:51:29 10° E visible
05 Mar - 06:26:20 10° NW 06:33:13 57° NNE 06:40:34 10° ESE visible
05 Mar - 08:13:32 10° W 08:20:58 87° S 08:28:27 10° E daylight
05 Mar - 10:01:27 10° W 10:09:02 90° S 10:16:11 10° E daylight
05 Mar - 11:49:30 10° W 11:56:37 50° NNW 12:03:01 10° NE daylight
05 Mar - 13:39:17 10° WNW 13:43:08 16° NW 13:46:45 10° N daylight
06 Mar - 04:22:11 10° N 04:26:55 21° NE 04:32:02 10° E visible
06 Mar - 06:06:56 10° NW 06:13:44 59° NNE 06:21:04 10° ESE visible
06 Mar - 07:54:07 10° W 08:01:29 86° S 08:09:01 10° E daylight
06 Mar - 09:41:59 10° W 09:49:32 89° NNW 09:56:48 10° ENE daylight
06 Mar - 11:30:01 10° W 11:37:07 49° NNW 11:43:38 10° NE daylight
06 Mar - 13:19:52 10° WNW 13:23:39 15° NW 13:27:13 10° N daylight
07 Mar - 04:02:43 10° N 04:07:27 21° NE 04:12:35 10° E visible
07 Mar - 05:47:32 10° NW 05:54:14 60° NNE 06:01:34 10° ESE visible
07 Mar - 07:34:42 10° W 07:41:59 85° S 07:49:33 10° E daylight
07 Mar - 09:22:30 10° W 09:30:03 88° NNW 09:37:23 10° ENE daylight
07 Mar - 11:10:30 10° W 11:17:37 48° NNW 11:24:12 10° NE daylight
07 Mar - 13:00:30 10° WNW 13:04:10 15° NW 13:07:40 10° NNW daylight
08 Mar - 03:43:16 10° N 03:47:57 22° NE 03:53:06 10° E visible
08 Mar - 05:28:10 10° NW 05:34:44 62° NNE 05:42:03 10° ESE visible
08 Mar - 07:15:19 10° W 07:22:29 85° S 07:30:03 10° E daylight
08 Mar - 09:03:03 10° W 09:10:32 87° NNW 09:17:57 10° ENE daylight
08 Mar - 10:51:00 10° W 10:58:06 46° NNW 11:04:46 10° NE daylight
08 Mar - 12:41:08 10° WNW 12:44:40 14° NW 12:48:03 10° NNW daylight
